This is the latest recevied weather packets stored in our database for station/object WY7EM. If no packets are shown the sender has not sent any weather packets the latest 10 day(s).
| Time | Temp. | Humidity | Pressure | Rain* | Wind** | Luminosity | Snow |
|---|---|---|---|---|---|---|---|
| 1777677637 | 21.11° C | 21% | 1015.1 hPa | 0 mm | - | 490 W/m² | - |
| 1777677335 | 21.67° C | 21% | 1015.1 hPa | 0 mm | - | 509 W/m² | - |
| 1777677033 | 21.11° C | 21% | 1014.9 hPa | 0 mm | - | 520 W/m² | - |
| 1777676732 | 21.67° C | 20% | 1015.1 hPa | 0 mm | - | 531 W/m² | - |
| 1777676429 | 21.67° C | 20% | 1014.9 hPa | 0 mm | - | 537 W/m² | - |
| 1777676126 | 22.22° C | 20% | 1015.1 hPa | 0 mm | - | 431 W/m² | - |
| 1777675822 | 21.67° C | 19% | 1014.9 hPa | 0 mm | - | 623 W/m² | - |
| 1777675520 | 21.67° C | 19% | 1015.1 hPa | 0 mm | - | 632 W/m² | - |
| 1777675217 | 21.11° C | 21% | 1014.9 hPa | 0 mm | - | 643 W/m² | - |
| 1777674914 | 21.67° C | 20% | 1014.9 hPa | 0 mm | - | 641 W/m² | - |
| 1777674610 | 21.67° C | 20% | 1015.2 hPa | 0 mm | - | 643 W/m² | - |
| 1777674307 | 22.22° C | 20% | 1015.1 hPa | 0 mm | - | 327 W/m² | - |
| 1777674004 | 21.67° C | 20% | 1015.2 hPa | 0 mm | - | 718 W/m² | - |
| 1777673700 | 21.67° C | 20% | 1015.2 hPa | 0 mm | - | 501 W/m² | - |
| 1777673398 | 21.11° C | 20% | 1015.2 hPa | 0 mm | - | 463 W/m² | - |
| 1777673095 | 20.56° C | 20% | 1015.3 hPa | 0 mm | - | 373 W/m² | - |
| 1777672791 | 22.22° C | 20% | 1015.2 hPa | 0 mm | - | 311 W/m² | - |
| 1777672488 | 21.67° C | 19% | 1015.3 hPa | 0 mm | - | 877 W/m² | - |
| 1777672183 | 21.67° C | 19% | 1015.3 hPa | 0 mm | - | 639 W/m² | - |
| 1777671879 | 21.67° C | 19% | 1015.4 hPa | 0 mm | - | 533 W/m² | - |
| 1777671574 | 21.11° C | 20% | 1015.3 hPa | 0 mm | - | 239 W/m² | - |
| 1777671272 | 21.67° C | 20% | 1015.4 hPa | 0 mm | - | 655 W/m² | - |
| 1777670967 | 22.78° C | 19% | 1015.6 hPa | 0 mm | - | 803 W/m² | - |
| 1777670664 | 22.78° C | 19% | 1015.5 hPa | 0 mm | - | 694 W/m² | - |
| 1777670361 | 22.78° C | 18% | 1015.6 hPa | 0 mm | - | 852 W/m² | - |
* Rain latest hour (hover to see other rain measurements)
** Current wind speed in m/s (hover to see current wind gust speed)